Location: Camp Crooked Creek
(37.9149°N, 85.6607°W)
Time: 05:52:20
(UTC-04:00)

Daily predictions for brighter satellites

Satellite Brightness Start Highest point End
(mag) Time Altitude Azimuth Time Altitude Azimuth Time Altitude Azimuth
Cosmos 1953 3.2 00:03:39 10° N 00:06:37 48° NNW 00:06:37 48° NNW
Spot 4 4.0 00:09:15 66° W 00:09:15 66° W 00:13:49 10° NNW
COSMOS 2406 3.0 00:09:27 81° SSE 00:09:39 83° ESE 00:15:25 10° NNE
Nadezhda 4 Rocket 3.9 00:08:39 65° S 00:09:41 89° E 00:16:03 10° N
Cosmos 2208 Rocket 4.2 00:08:30 10° NNW 00:13:24 62° NE 00:13:24 62° NE
CZ-4B R/B 4.4 00:17:28 12° NE 00:17:28 12° NE 00:18:03 10° NE
USA 238 DEB 3.7 00:13:43 42° SW 00:16:26 85° WNW 00:23:33 10° NNE
USA 238 3.7 00:13:55 43° SW 00:16:32 86° WNW 00:23:39 10° NNE
Terra 2.8 00:22:47 38° W 00:22:47 38° W 00:27:02 10° NNW
CZ-4C R/B 3.6 00:26:52 26° ENE 00:26:52 26° ENE 00:29:48 10° NE
Cosmos 1741 Rocket 4.1 00:32:35 72° NW 00:32:35 72° NW 00:37:43 10° NNE
H-2A R/B 3.5 00:38:18 26° W 00:38:18 26° W 00:42:28 10° NW
Lacrosse 4 Rocket 4.3 00:41:09 10° WNW 00:42:37 12° NW 00:44:05 10° NNW
Cosmos 2221 3.9 00:42:10 10° N 00:44:51 34° NNE 00:44:51 34° NNE
Cosmos 1943 Rocket 2.9 00:41:36 10° NW 00:46:20 41° W 00:46:20 41° W
Meteor 1-24 Rocket 4.2 00:48:55 54° ENE 00:48:55 54° ENE 00:54:11 10° NNE
Cosmos 2026 Rocket 3.9 00:49:48 73° ENE 00:49:48 73° ENE 00:55:36 10° N
Cosmos 2195 Rocket 4.3 00:50:13 85° E 00:50:13 85° E 00:56:27 10° N
NOSS 3-2 (C) 3.9 00:51:59 48° E 00:51:59 48° E 00:57:10 10° NE
Cosmos 1627 Rocket 4.3 00:55:01 87° NW 00:55:01 87° NW 01:01:06 10° N
Cosmos 1607 4.4 00:56:52 46° W 00:58:16 56° NW 01:04:25 10° NNE
Cosmos 1656 Rocket 3.9 00:56:18 10° NNW 01:01:14 62° WNW 01:01:14 62° WNW
Meteor 2-5 Rocket 4.1 01:05:33 59° W 01:05:35 59° W 01:11:19 10° N
CZ-2C R/B 4.0 01:12:20 10° NNE 01:16:07 30° ENE 01:16:07 30° ENE
Cosmos 2344 3.9 01:17:28 49° ESE 01:17:28 49° ESE 01:25:21 10° NE
ALOS 2 3.9 01:23:39 37° NNW 01:23:39 37° NNW 01:26:22 10° NNW
Meteor 2-1 Rocket 4.4 01:17:32 10° NNW 01:22:53 71° NW 01:22:53 71° NW
Cosmos 2369 4.1 01:27:46 10° NNW 01:33:02 56° NE 01:33:02 56° NE
NOSS 3-2 (A) 3.7 01:34:41 57° W 01:35:20 60° NW 01:41:53 10° NNE
Cosmos 1553 Rocket 4.0 01:30:44 10° N 01:36:55 80° WNW 01:36:55 80° WNW
Cosmos 1818 4.0 01:35:10 10° NNW 01:39:56 60° NNE 01:39:56 60° NNE
CZ-4B R/B 4.4 01:51:14 15° NW 01:51:14 15° NW 01:52:03 10° NNW
Cosmos 1763 Rocket 4.0 01:50:11 10° NNW 01:54:40 57° NNE 01:54:40 57° NNE
Cosmos 2315 Rocket 4.4 01:49:40 10° N 01:55:48 50° E 01:56:08 50° E
Cosmos 2278 4.0 01:50:28 10° NNW 01:55:09 62° NW 01:55:09 62° NW
Cosmos 1980 Rocket 4.2 01:52:00 10° N 01:56:17 22° NE 01:58:50 16° E
Cosmos 2266 Rocket 3.9 02:02:30 83° WNW 02:02:30 83° WNW 02:08:54 10° N
USA 215 4.3 02:01:27 10° ENE 02:05:58 30° ESE 02:05:58 30° ESE
Lacrosse 5 3.7 02:07:21 10° NNW 02:11:42 28° NE 02:14:59 15° E
CZ-4C R/B 3.4 02:12:00 31° WNW 02:13:06 33° NW 02:18:28 10° NNE
Cosmos 1867 4.1 02:13:52 54° NW 02:13:52 54° NW 02:18:56 10° NNE
Cosmos 2082 Rocket 2.3 02:14:28 71° N 02:14:28 71° N 02:19:33 10° NNE
Cosmos 1697 Rocket 3.2 02:11:40 10° NNW 02:17:12 51° ENE 02:17:38 49° E
Cosmos 1354 Rocket 4.4 02:20:09 58° NNW 02:20:09 58° NNW 02:24:43 10° NNE
MOS 1-B Rocket 4.4 02:20:11 69° S 02:21:12 82° WSW 02:28:08 10° NNW
Cosmos 1833 Rocket 2.8 02:23:37 74° NNE 02:23:37 74° NNE 02:28:44 10° NNE
Cosmos 1503 Rocket 4.5 02:26:33 56° NW 02:26:33 56° NW 02:31:14 10° N
USA 32 4.4 02:22:45 10° N 02:27:30 60° NE 02:27:30 60° NE
CZ-2C R/B 3.2 02:30:16 77° NNW 02:30:16 77° NNW 02:35:32 10° NNW
BREEZE-M TANK 3.5 02:18:25 10° WSW 02:32:15 76° NNW 02:35:47 10° ENE
Cosmos 841 Rocket 4.3 02:29:42 10° NNW 02:33:31 44° NW 02:33:31 44° NW
CENTAUR R/B 2.4 02:37:39 77° SE 02:37:42 77° ESE 02:44:25 10° NE
Meteor 2-11 Rocket 4.4 02:34:26 10° N 02:40:36 72° E 02:41:06 68° ESE
Cosmos 1726 4.4 02:37:37 10° NNE 02:39:41 22° NE 02:39:41 22° NE
Cosmos 1656 3.9 02:43:25 10° NNW 02:48:15 58° WNW 02:48:15 58° WNW
Aureole 1 Rocket 3.6 02:45:17 10° NNW 02:49:58 82° NE 02:49:58 82° NE
SL-08 R/B 4.3 02:53:14 71° SE 02:53:45 76° E 02:59:51 10° N
CZ-2C R/B 3.8 02:52:38 10° N 02:57:25 31° WNW 02:57:38 31° WNW
SL-16 R/B 4.1 02:53:22 10° N 02:58:04 26° ENE 03:02:43 10° ESE
ASTEX 1 3.8 02:59:26 10° N 03:03:43 53° NW 03:03:43 53° NW
Cosmos 1805 Rocket 4.3 03:05:21 48° NNW 03:05:21 48° NNW 03:08:45 10° N
Cosmos 2242 Rocket 4.2 03:02:07 10° N 03:06:03 53° ENE 03:06:03 53° ENE
ISS 0.3 03:05:44 10° N 03:06:44 11° NNE 03:07:44 10° NE
Cosmos 1703 4.4 03:11:01 40° ENE 03:11:01 40° ENE 03:14:04 10° NNE
Cosmos 2322 Rocket 3.6 03:05:29 10° N 03:10:35 34° ENE 03:15:23 11° ESE
Cosmos 1633 Rocket 3.4 03:13:20 63° N 03:13:20 63° N 03:17:05 10° N
Cosmos 1707 Rocket 4.4 03:16:07 10° NNW 03:19:12 41° NW 03:19:12 41° NW
Cosmos 332 Rocket 3.8 03:16:08 10° NNW 03:20:35 76° NNW 03:20:35 76° NNW
Cosmos 1666 Rocket 4.2 03:22:15 46° NW 03:22:15 46° NW 03:25:39 10° N
Cosmos 1271 Rocket 4.2 03:18:48 10° NNE 03:22:13 31° ENE 03:22:17 31° E
CBERS-1 4.3 03:20:07 10° NNE 03:25:11 58° E 03:25:50 53° SE
Cosmos 2058 4.3 03:27:08 30° NW 03:27:08 30° NW 03:29:56 10° NNW
SL-08 R/B 3.6 03:27:42 54° SE 03:28:35 65° ENE 03:33:26 10° N
Meteor 1-11 4.4 03:28:51 55° WSW 03:29:25 57° WNW 03:35:10 10° N
Lacrosse 5 rocket 3.3 03:27:51 10° NNW 03:31:49 32° NE 03:35:54 10° ESE
Cosmos 1470 Rocket 3.6 03:31:57 71° E 03:31:57 71° E 03:36:22 10° NNE
ARIANE 5 R/B 4.1 03:29:11 10° NE 03:33:25 26° E 03:35:28 20° SE
IRAS Rocket 4.2 03:30:27 10° N 03:35:52 63° WNW 03:36:38 57° WSW
Cosmos 1933 Rocket 3.5 03:36:33 77° E 03:36:33 77° E 03:40:57 10° N
ADEOS 4.0 03:32:15 10° NNE 03:37:23 54° E 03:38:41 43° SSE
IRS-P3 Rocket 4.4 03:34:17 10° NNE 03:39:31 84° WNW 03:40:19 65° SSW
Cosmos 1980 Rocket 2.3 03:35:08 10° NNW 03:40:33 52° WSW 03:40:33 52° WSW
Cosmos 540 Rocket 4.3 03:36:17 10° NW 03:40:10 35° WNW 03:40:10 35° WNW
Cosmos 2360 Rocket 4.5 03:36:44 10° N 03:41:06 22° NE 03:45:26 10° ESE
Cosmos 1386 Rocket 4.4 03:39:58 53° SSW 03:41:25 73° W 03:47:35 10° N
CZ-2D R/B 4.0 03:38:01 10° NE 03:42:07 23° E 03:45:19 14° SE
ERS-2 3.0 03:40:05 10° N 03:42:57 43° NNW 03:42:57 43° NNW
deb Kosmos-1763 4.5 03:45:38 61° NNW 03:45:38 61° NNW 03:48:58 10° NNE
SL-16 R/B 4.0 03:40:23 10° SE 03:45:57 35° ENE 03:51:32 10° N
NPP 3.7 03:44:36 10° N 03:49:58 68° WNW 03:51:03 54° SW
Cosmos 1745 Rocket 4.5 03:48:46 40° WSW 03:50:04 44° WNW 03:56:07 10° N
USA 215 3.4 03:43:56 10° NE 03:50:23 65° NW 03:53:18 34° WSW
Sich 1 4.3 03:53:31 28° WNW 03:53:31 28° WNW 03:57:00 10° NNW
USA 161 4.0 03:54:46 18° NNE 03:54:46 18° NNE 03:55:40 10° N
Lacrosse 5 2.2 03:49:57 10° NW 03:54:01 47° W 03:54:01 47° W
Cosmos 2082 Rocket 4.5 03:56:46 10° WNW 03:58:52 12° NW 04:00:59 10° NNW
Meteor 1-4 Rocket 2.6 03:55:07 10° N 03:58:38 74° NW 03:58:38 74° NW
Nadezhda 1 Rocket 4.2 03:53:07 10° NNW 03:58:58 47° W 04:00:14 42° SW
Cosmos 1697 Rocket 4.3 03:56:41 10° NW 03:59:20 19° W 03:59:20 19° W
Cosmos 1709 Rocket 3.9 03:59:11 40° SSW 04:01:38 82° W 04:07:56 10° N
Meteor 2-10 4.0 03:57:50 10° NNW 04:03:03 66° W 04:04:30 47° SSW
Okean O Rocket 4.1 04:08:02 10° NE 04:10:52 17° E 04:13:41 10° SE
Cosmos 371 Rocket 3.8 04:07:52 10° NW 04:12:20 39° W 04:12:20 39° W
SEDSat Delta rocket 4.2 04:10:50 37° SW 04:13:01 49° S 04:19:25 10° ESE
Cosmos 1862 Rocket 3.6 04:09:09 10° NNW 04:13:33 58° W 04:14:12 52° SW
Cosmos 1455 2.1 04:10:11 10° NNW 04:13:55 61° W 04:13:55 61° W
ATLAS 5 CENTAUR R/B 1.8 04:13:59 44° SSW 04:15:30 76° ESE 04:20:40 10° NE
Cosmos 1726 4.5 04:13:39 10° NW 04:14:21 13° WNW 04:14:21 13° WNW
Cosmos 1346 3.3 04:16:14 67° E 04:16:14 67° E 04:19:14 10° NNE
H-2A R/B 3.0 04:14:58 34° SW 04:17:24 58° S 04:42:11 10° ESE
IRS-1C 4.4 04:15:18 10° N 04:20:29 52° WNW 04:22:20 35° SW
Cosmos 1833 4.3 04:22:23 31° SSW 04:25:16 78° ESE 04:31:03 10° NNE
Cosmos 304 Rocket 3.9 04:21:46 10° NNW 04:26:37 73° ENE 04:31:26 10° SSE
CENTAUR R/B 4.3 04:24:49 12° W 04:29:11 23° NW 04:34:31 10° NNE
Cosmos 2221 Rocket 3.7 04:26:47 10° N 04:31:17 79° E 04:34:37 18° SSE
Cosmos 1626 3.2 04:34:40 28° W 04:34:52 28° WNW 04:38:09 10° NNW
Resurs 1-4 Rocket 2.2 04:30:04 10° NNE 04:35:24 76° ESE 04:39:02 21° S
Cosmos 1869 Rocket 3.5 04:35:04 29° S 04:37:15 89° E 04:41:42 10° N
UNKNOWN OBJECT B 3.4 04:34:39 10° NNE 04:38:23 53° E 04:40:49 21° S
Cosmos 1869 3.9 04:35:45 10° NNW 04:39:23 35° W 04:39:55 34° WSW
Cosmos 2298 Rocket 4.3 04:35:52 21° S 04:39:24 65° ESE 04:44:41 10° NNE
SL-16 R/B 2.5 04:36:59 10° NW 04:42:19 43° WSW 04:45:43 21° SSW
ISS -2.1 04:40:42 10° NW 04:43:51 44° NE 04:46:59 10° ESE
Cosmos 923 Rocket 4.3 04:42:14 10° NNW 04:47:13 45° WSW 04:50:28 20° SSW
SME Rocket 4.3 04:43:15 10° SSE 04:50:13 63° ENE 04:54:56 10° N
Meteor 2-3 Rocket 4.3 04:45:14 10° S 04:50:53 60° E 04:56:35 10° NNE
UNK 3.6 04:47:01 13° S 04:51:06 75° WSW 04:55:41 10° NNW
USA 229 DEB 3.9 04:46:06 19° SSW 04:51:11 70° ESE 04:58:08 10° NE
USA 229 3.9 04:46:10 19° SSW 04:51:18 69° ESE 04:58:14 10° NE
OAO 3 Rocket 3.1 04:51:09 22° WSW 04:54:02 59° S 04:58:40 10° ESE
Cosmos 2322 Rocket 3.0 04:49:39 10° NW 04:54:30 30° WSW 04:57:05 21° SW
Cosmos 1680 Rocket 3.7 04:51:33 10° NNW 04:56:33 48° WSW 05:01:26 11° S
ATLAS CENTAUR R/B 3.3 04:55:14 10° NNW 04:59:33 35° NE 05:03:32 10° ESE
EO 1 Del DPAF 3.9 04:59:05 25° SW 05:00:43 36° W 05:04:22 10° NNW
CZ-2D R/B 3.5 04:58:15 10° NNE 05:02:24 77° E 05:05:55 13° S
Coronas F rocket 4.4 05:06:52 10° ESE 05:08:15 13° E 05:09:40 10° ENE
Cosmos 1933 4.1 05:04:47 10° NNW 05:08:23 32° W 05:10:28 20° SW
Cosmos 1703 Rocket 4.2 05:04:32 10° NNW 05:08:30 35° W 05:11:12 18° SSW
GPS 2-05 Rocket1 2.8 05:06:56 23° WSW 05:08:46 58° S 05:12:08 10° E
CZ-4B R/B 4.1 05:05:31 10° NNE 05:09:22 41° E 05:13:23 10° S
PSLV R/B 4.0 05:06:28 10° NNE 05:10:25 73° ESE 05:14:26 10° S
Cosmos 1733 Rocket 3.8 05:06:14 10° S 05:10:26 51° E 05:14:41 10° NNE
Lacrosse 5 rocket 2.1 05:07:04 10° WNW 05:11:06 34° SW 05:15:14 10° S
MTI 4.3 05:09:30 18° SSW 05:11:37 41° W 05:14:49 10° NNW
Thor Agena Rocket 4.0 05:06:26 10° SSE 05:11:40 67° ENE 05:16:55 10° N
IRS-1C Rocket 4.1 05:07:05 10° NNE 05:12:24 88° W 05:17:40 10° SSW
ARIANE 5 R/B 3.4 05:08:01 10° N 05:12:32 33° WNW 05:15:48 16° WSW
Nadezhda 3 Rocket 4.3 05:07:40 10° N 05:13:49 68° E 05:19:55 10° SSE
IRS-1D 4.4 05:09:47 10° N 05:14:39 37° WNW 05:18:26 15° SW
Cosmos 2154 Rocket 4.2 05:08:38 10° S 05:14:57 80° E 05:21:19 10° N
Centaur D-1AR AC-48 4.4 05:03:25 10° WSW 05:20:10 27° SSW 05:25:13 10° SE
CZ-2D R/B 2.7 05:17:25 10° N 05:22:17 40° WNW 05:26:39 13° SW
Cosmos 389 Rocket 2.9 05:18:47 10° N 05:22:29 70° E 05:26:09 10° SSE
Cosmos 1898 Rocket 3.7 05:20:38 13° SSW 05:25:06 57° WNW 05:30:13 10° N
Cosmos 2360 Rocket 2.4 05:19:56 10° NNW 05:25:21 50° WSW 05:30:45 10° S
Cosmos 2227 Rocket 3.8 05:21:17 10° SSE 05:26:13 32° ESE 05:31:11 10° NE
In-Cosmos 22 Rocket 4.2 05:23:06 10° SSW 05:28:18 57° W 05:33:37 10° N
SL-16 R/B 3.2 05:23:51 10° SSW 05:29:29 35° W 05:35:10 10° NNW
CZ-4B R/B 3.2 05:27:34 10° NNE 05:33:03 83° WNW 05:38:36 10° SSW
Cosmos 1937 Rocket 3.6 05:27:51 10° SSW 05:33:08 69° WNW 05:38:27 10° NNE
Okean 1-7 4.0 05:32:10 10° NNW 05:35:56 29° W 05:39:41 10° SSW
Iridium 4 Rocket 4.4 05:33:53 10° NNE 05:37:58 42° E 05:41:54 10° SSE
Cosmos 2219 3.7 05:32:52 11° SW 05:38:11 48° WNW 05:43:45 10° N
Cosmos 2322 4.2 05:35:25 10° NW 05:40:39 37° WSW 05:45:51 10° S
Meteor 2-10 Rocket 3.5 05:37:49 10° N 05:42:53 90° E 05:48:06 10° S
Cosmos 1340 Rocket 3.1 05:40:08 10° S 05:44:09 73° E 05:48:10 10° NNE
FALCON 9 R/B 1.1 05:42:34 10° WSW 05:44:31 34° S 05:47:17 10° ESE
Cosmos 1908 Rocket 4.3 05:40:35 10° S 05:44:54 56° E 05:49:13 10° NNE
Okean O Rocket 2.3 05:43:15 10° N 05:47:24 39° WNW 05:51:29 10° SW
Cosmos 1674 Rocket 3.5 05:50:20 10° N 05:54:39 74° W 05:58:57 10° S
CZ-4B DEB 4.4 05:50:31 10° N 05:55:54 59° WNW 06:01:18 10° SSW
ADEOS II 3.2 05:51:11 10° NNE 05:56:17 48° E 06:01:20 10° S
MOZ.5/SAFIR/RUBIN 5/SL-8 3.9 05:51:54 10° S 05:56:28 55° W 06:01:06 10° NNW
